Year,Month,Day,Hour,Minute,Value (Times are PST for temperature in C)
2009,05,01,00,00,11.30
2009,05,01,00,01,11.30
2009,05,01,00,02,11.30
2009,05,01,00,03,11.30
2009,05,01,00,04,11.30
2009,05,01,00,05,11.30
2009,05,01,00,06,11.30
2009,05,01,00,07,11.30
2009,05,01,00,08,11.20
2009,05,01,00,09,11.20
2009,05,01,00,10,11.20
2009,05,01,00,11,11.10
2009,05,01,00,12,11.10
2009,05,01,00,13,11.00
2009,05,01,00,14,11.00
2009,05,01,00,15,10.90
2009,05,01,00,16,10.90
2009,05,01,00,17,10.80
2009,05,01,00,18,10.80
2009,05,01,00,19,10.80
2009,05,01,00,20,10.80
2009,05,01,00,21,10.80
2009,05,01,00,22,10.80
2009,05,01,00,23,10.80
2009,05,01,00,24,10.80
2009,05,01,00,25,10.80
2009,05,01,00,26,10.80
2009,05,01,00,27,10.70
2009,05,01,00,28,10.70
2009,05,01,00,29,10.70
2009,05,01,00,30,10.70
2009,05,01,00,31,10.70
2009,05,01,00,32,10.60
2009,05,01,00,33,10.60
2009,05,01,00,34,10.60
2009,05,01,00,35,10.60
2009,05,01,00,36,10.60
2009,05,01,00,37,10.50
2009,05,01,00,38,10.50
2009,05,01,00,39,10.50
2009,05,01,00,40,10.50
2009,05,01,00,41,10.50
2009,05,01,00,42,10.40
2009,05,01,00,43,10.40
2009,05,01,00,44,10.30
2009,05,01,00,45,10.30
2009,05,01,00,46,10.20
2009,05,01,00,47,10.20
2009,05,01,00,48,10.10
2009,05,01,00,49,10.10
2009,05,01,00,50,10.00
2009,05,01,00,51,10.00
2009,05,01,00,52,9.90
2009,05,01,00,53,9.90
2009,05,01,00,54,9.90
2009,05,01,00,55,9.90
2009,05,01,00,56,9.80
2009,05,01,00,57,9.80
2009,05,01,00,58,9.80
2009,05,01,00,59,9.70
2009,05,01,01,00,9.70
2009,05,01,01,01,9.70
2009,05,01,01,02,9.70
2009,05,01,01,03,9.70
2009,05,01,01,04,9.70
2009,05,01,01,05,9.70
2009,05,01,01,06,9.70
2009,05,01,01,07,9.60
2009,05,01,01,08,9.60
2009,05,01,01,09,9.60
2009,05,01,01,10,9.60
2009,05,01,01,11,9.60
2009,05,01,01,12,9.70
2009,05,01,01,13,9.80
2009,05,01,01,14,9.90
2009,05,01,01,15,10.00
2009,05,01,01,16,10.10
2009,05,01,01,17,10.20
2009,05,01,01,18,10.30
2009,05,01,01,19,10.30
2009,05,01,01,20,10.40
2009,05,01,01,21,10.50
2009,05,01,01,22,10.60
2009,05,01,01,23,10.70
2009,05,01,01,24,10.80
2009,05,01,01,25,10.80
2009,05,01,01,26,10.80
2009,05,01,01,27,10.80
2009,05,01,01,28,10.80
2009,05,01,01,29,10.80
2009,05,01,01,30,10.80
2009,05,01,01,31,10.90
2009,05,01,01,32,10.90
2009,05,01,01,33,10.90
2009,05,01,01,34,11.00
2009,05,01,01,35,11.10
2009,05,01,01,36,11.10
2009,05,01,01,37,11.20
2009,05,01,01,38,11.20
2009,05,01,01,39,11.30
2009,05,01,01,40,11.30
2009,05,01,01,41,11.30
2009,05,01,01,42,11.40
2009,05,01,01,43,11.40
2009,05,01,01,44,11.40
2009,05,01,01,45,11.40
2009,05,01,01,46,11.40
2009,05,01,01,47,11.40
2009,05,01,01,48,11.30
2009,05,01,01,49,11.30
2009,05,01,01,50,11.30
2009,05,01,01,51,11.20
2009,05,01,01,52,11.20
2009,05,01,01,53,11.20
2009,05,01,01,54,11.20
2009,05,01,01,55,11.10
2009,05,01,01,56,11.10
2009,05,01,01,57,11.00
2009,05,01,01,58,10.90
2009,05,01,01,59,10.80
2009,05,01,02,00,10.80
2009,05,01,02,01,10.70
2009,05,01,02,02,10.60
2009,05,01,02,03,10.50
2009,05,01,02,04,10.50
2009,05,01,02,05,10.40
2009,05,01,02,06,10.40
2009,05,01,02,07,10.40
2009,05,01,02,08,10.40
2009,05,01,02,09,10.40
2009,05,01,02,10,10.40
2009,05,01,02,11,10.40
2009,05,01,02,12,10.50
2009,05,01,02,13,10.50
2009,05,01,02,14,10.50
2009,05,01,02,15,10.50
2009,05,01,02,16,10.60
2009,05,01,02,17,10.60
2009,05,01,02,18,10.60
2009,05,01,02,19,10.60
2009,05,01,02,20,10.60
2009,05,01,02,21,10.60
2009,05,01,02,22,10.60
2009,05,01,02,23,10.60
2009,05,01,02,24,10.60
2009,05,01,02,25,10.60
2009,05,01,02,26,10.60
2009,05,01,02,27,10.60
2009,05,01,02,28,10.50
2009,05,01,02,29,10.50
2009,05,01,02,30,10.50
2009,05,01,02,31,10.50
2009,05,01,02,32,10.50
2009,05,01,02,33,10.50
2009,05,01,02,34,10.50
2009,05,01,02,35,10.50
2009,05,01,02,36,10.50
2009,05,01,02,37,10.50
2009,05,01,02,38,10.50
2009,05,01,02,39,10.50
2009,05,01,02,40,10.50
2009,05,01,02,41,10.50
2009,05,01,02,42,10.40
2009,05,01,02,43,10.40
2009,05,01,02,44,10.40
2009,05,01,02,45,10.40
2009,05,01,02,46,10.30
2009,05,01,02,47,10.30
2009,05,01,02,48,10.30
2009,05,01,02,49,10.30
2009,05,01,02,50,10.30
2009,05,01,02,51,10.30
2009,05,01,02,52,10.30
2009,05,01,02,53,10.20
2009,05,01,02,54,10.20
2009,05,01,02,55,10.20
2009,05,01,02,56,10.20
2009,05,01,02,57,10.20
2009,05,01,02,58,10.10
2009,05,01,02,59,10.10
2009,05,01,03,00,10.10
2009,05,01,03,01,10.10
2009,05,01,03,02,10.10
2009,05,01,03,03,10.10
2009,05,01,03,04,10.10
2009,05,01,03,05,10.10
2009,05,01,03,06,10.10
2009,05,01,03,07,10.10
2009,05,01,03,08,10.10
2009,05,01,03,09,10.10
2009,05,01,03,10,10.10
2009,05,01,03,11,10.20
2009,05,01,03,12,10.20
2009,05,01,03,13,10.20
2009,05,01,03,14,10.20
2009,05,01,03,15,10.20
2009,05,01,03,16,10.20
2009,05,01,03,17,10.20
2009,05,01,03,18,10.20
2009,05,01,03,19,10.20
2009,05,01,03,20,10.30
2009,05,01,03,21,10.30
2009,05,01,03,22,10.40
2009,05,01,03,23,10.50
2009,05,01,03,24,10.60
2009,05,01,03,25,10.60
2009,05,01,03,26,10.70
2009,05,01,03,27,10.70
2009,05,01,03,28,10.70
2009,05,01,03,29,10.70
2009,05,01,03,30,10.80
2009,05,01,03,31,10.80
2009,05,01,03,32,10.80
2009,05,01,03,33,10.80
2009,05,01,03,34,10.80
2009,05,01,03,35,10.80
2009,05,01,03,36,10.80
2009,05,01,03,37,10.80
2009,05,01,03,38,10.70
2009,05,01,03,39,10.70
2009,05,01,03,40,10.70
2009,05,01,03,41,10.70
2009,05,01,03,42,10.60
2009,05,01,03,43,10.60
2009,05,01,03,44,10.60
2009,05,01,03,45,10.60
2009,05,01,03,46,10.50
2009,05,01,03,47,10.50
2009,05,01,03,48,10.50
2009,05,01,03,49,10.40
2009,05,01,03,50,10.40
2009,05,01,03,51,10.40
2009,05,01,03,52,10.40
2009,05,01,03,53,10.30
2009,05,01,03,54,10.30
2009,05,01,03,55,10.30
2009,05,01,03,56,10.20
2009,05,01,03,57,10.20
2009,05,01,03,58,10.20
2009,05,01,03,59,10.20
2009,05,01,04,00,10.20
2009,05,01,04,01,10.30
2009,05,01,04,02,10.30
2009,05,01,04,03,10.30
2009,05,01,04,04,10.30
2009,05,01,04,05,10.30
2009,05,01,04,06,10.30
2009,05,01,04,07,10.30
2009,05,01,04,08,10.40
2009,05,01,04,09,10.40
2009,05,01,04,10,10.50
2009,05,01,04,11,10.50
2009,05,01,04,12,10.60
2009,05,01,04,13,10.60
2009,05,01,04,14,10.60
2009,05,01,04,15,10.60
2009,05,01,04,16,10.60
2009,05,01,04,17,10.70
2009,05,01,04,18,10.70
2009,05,01,04,19,10.70
2009,05,01,04,20,10.70
2009,05,01,04,21,10.70
2009,05,01,04,22,10.70
2009,05,01,04,23,10.70
2009,05,01,04,24,10.70
2009,05,01,04,25,10.70
2009,05,01,04,26,10.70
2009,05,01,04,27,10.70
2009,05,01,04,28,10.70
2009,05,01,04,29,10.70
2009,05,01,04,30,10.60
2009,05,01,04,31,10.60
2009,05,01,04,32,10.60
2009,05,01,04,33,10.60
2009,05,01,04,34,10.60
2009,05,01,04,35,10.60
2009,05,01,04,36,10.60
2009,05,01,04,37,10.60
2009,05,01,04,38,10.60
2009,05,01,04,39,10.60
2009,05,01,04,40,10.60
2009,05,01,04,41,10.60
2009,05,01,04,42,10.60
2009,05,01,04,43,10.60
2009,05,01,04,44,10.60
2009,05,01,04,45,10.60
2009,05,01,04,46,10.70
2009,05,01,04,47,10.70
2009,05,01,04,48,10.70
2009,05,01,04,49,10.70
2009,05,01,04,50,10.70
2009,05,01,04,51,10.70
2009,05,01,04,52,10.70
2009,05,01,04,53,10.70
2009,05,01,04,54,10.70
2009,05,01,04,55,10.70
2009,05,01,04,56,10.60
2009,05,01,04,57,10.60
2009,05,01,04,58,10.60
2009,05,01,04,59,10.60
2009,05,01,05,00,10.50
2009,05,01,05,01,10.50
2009,05,01,05,02,10.50
2009,05,01,05,03,10.40
2009,05,01,05,04,10.40
2009,05,01,05,05,10.40
2009,05,01,05,06,10.40
2009,05,01,05,07,10.40
2009,05,01,05,08,10.40
2009,05,01,05,09,10.40
2009,05,01,05,10,10.40
2009,05,01,05,11,10.40
2009,05,01,05,12,10.40
2009,05,01,05,13,10.40
2009,05,01,05,14,10.40
2009,05,01,05,15,10.40
2009,05,01,05,16,10.40
2009,05,01,05,17,10.40
2009,05,01,05,18,10.40
2009,05,01,05,19,10.40
2009,05,01,05,20,10.40
2009,05,01,05,21,10.40
2009,05,01,05,22,10.40
2009,05,01,05,23,10.40
2009,05,01,05,24,10.40
2009,05,01,05,25,10.40
2009,05,01,05,26,10.40
2009,05,01,05,27,10.40
2009,05,01,05,28,10.40
2009,05,01,05,29,10.40
2009,05,01,05,30,10.40
2009,05,01,05,31,10.30
2009,05,01,05,32,10.30
2009,05,01,05,33,10.30
2009,05,01,05,34,10.30
2009,05,01,05,35,10.30
2009,05,01,05,36,10.20
2009,05,01,05,37,10.20
2009,05,01,05,38,10.20
2009,05,01,05,39,10.10
2009,05,01,05,40,10.10
2009,05,01,05,41,10.00
2009,05,01,05,42,10.00
2009,05,01,05,43,9.90
2009,05,01,05,44,9.90
2009,05,01,05,45,9.80
2009,05,01,05,46,9.80
2009,05,01,05,47,9.80
2009,05,01,05,48,9.70
2009,05,01,05,49,9.70
2009,05,01,05,50,9.70
2009,05,01,05,51,9.60
2009,05,01,05,52,9.60
2009,05,01,05,53,9.60
2009,05,01,05,54,9.60
2009,05,01,05,55,9.60
2009,05,01,05,56,9.50
2009,05,01,05,57,9.50
2009,05,01,05,58,9.40
2009,05,01,05,59,9.40
2009,05,01,06,00,9.40
2009,05,01,06,01,9.40
2009,05,01,06,02,9.40
2009,05,01,06,03,9.40
2009,05,01,06,04,9.40
2009,05,01,06,05,9.40
2009,05,01,06,06,9.40
2009,05,01,06,07,9.40
2009,05,01,06,08,9.50
2009,05,01,06,09,9.50
2009,05,01,06,10,9.60
2009,05,01,06,11,9.60
2009,05,01,06,12,9.60
2009,05,01,06,13,9.60
2009,05,01,06,14,9.60
2009,05,01,06,15,9.70
2009,05,01,06,16,9.70
2009,05,01,06,17,9.70
2009,05,01,06,18,9.70
2009,05,01,06,19,9.70
2009,05,01,06,20,9.70
2009,05,01,06,21,9.70
2009,05,01,06,22,9.70
2009,05,01,06,23,9.70
2009,05,01,06,24,9.70
2009,05,01,06,25,9.70
2009,05,01,06,26,9.70
2009,05,01,06,27,9.70
2009,05,01,06,28,9.70
2009,05,01,06,29,9.70
2009,05,01,06,30,9.70
2009,05,01,06,31,9.70
2009,05,01,06,32,9.80
2009,05,01,06,33,9.80
2009,05,01,06,34,9.80
2009,05,01,06,35,9.90
2009,05,01,06,36,9.90
2009,05,01,06,37,9.90
2009,05,01,06,38,10.00
2009,05,01,06,39,10.00
2009,05,01,06,40,10.10
2009,05,01,06,41,10.10
2009,05,01,06,42,10.10
2009,05,01,06,43,10.10
2009,05,01,06,44,10.10
2009,05,01,06,45,10.20
2009,05,01,06,46,10.20
2009,05,01,06,47,10.20
2009,05,01,06,48,10.20
2009,05,01,06,49,10.30
2009,05,01,06,50,10.30
2009,05,01,06,51,10.30
2009,05,01,06,52,10.30
2009,05,01,06,53,10.40
2009,05,01,06,54,10.40
2009,05,01,06,55,10.40
2009,05,01,06,56,10.40
2009,05,01,06,57,10.40
2009,05,01,06,58,10.50
2009,05,01,06,59,10.50
2009,05,01,07,00,10.50
2009,05,01,07,01,10.60
2009,05,01,07,02,10.60
2009,05,01,07,03,10.70
2009,05,01,07,04,10.70
2009,05,01,07,05,10.80
2009,05,01,07,06,10.80
2009,05,01,07,07,10.90
2009,05,01,07,08,10.90
2009,05,01,07,09,11.00
2009,05,01,07,10,11.10
2009,05,01,07,11,11.10
2009,05,01,07,12,11.20
2009,05,01,07,13,11.20
2009,05,01,07,14,11.20
2009,05,01,07,15,11.30
2009,05,01,07,16,11.40
2009,05,01,07,17,11.40
2009,05,01,07,18,11.40
2009,05,01,07,19,11.40
2009,05,01,07,20,11.50
2009,05,01,07,21,11.50
2009,05,01,07,22,11.60
2009,05,01,07,23,11.60
2009,05,01,07,24,11.70
2009,05,01,07,25,11.70
2009,05,01,07,26,11.70
2009,05,01,07,27,11.70
2009,05,01,07,28,11.80
2009,05,01,07,29,11.80
2009,05,01,07,30,11.80
2009,05,01,07,31,11.80
2009,05,01,07,32,11.80
2009,05,01,07,33,11.80
2009,05,01,07,34,11.70
2009,05,01,07,35,11.70
2009,05,01,07,36,11.60
2009,05,01,07,37,11.60
2009,05,01,07,38,11.60
2009,05,01,07,39,11.70
2009,05,01,07,40,11.70
2009,05,01,07,41,11.80
2009,05,01,07,42,11.90
2009,05,01,07,43,11.90
2009,05,01,07,44,12.00
2009,05,01,07,45,12.10
2009,05,01,07,46,12.10
2009,05,01,07,47,12.10
2009,05,01,07,48,12.10
2009,05,01,07,49,12.00
2009,05,01,07,50,12.00
2009,05,01,07,51,12.00
2009,05,01,07,52,12.00
2009,05,01,07,53,12.00
2009,05,01,07,54,12.00
2009,05,01,07,55,11.90
2009,05,01,07,56,11.90
2009,05,01,07,57,11.80
2009,05,01,07,58,11.90
2009,05,01,07,59,11.80
2009,05,01,08,00,11.90
2009,05,01,08,01,11.90
2009,05,01,08,02,11.80
2009,05,01,08,03,11.80
2009,05,01,08,04,11.70
2009,05,01,08,05,11.70
2009,05,01,08,06,11.70
2009,05,01,08,07,11.60
2009,05,01,08,08,11.50
2009,05,01,08,09,11.40
2009,05,01,08,10,11.30
2009,05,01,08,11,11.20
2009,05,01,08,12,11.20
2009,05,01,08,13,11.10
2009,05,01,08,14,11.10
2009,05,01,08,15,11.00
2009,05,01,08,16,11.00
2009,05,01,08,17,10.90
2009,05,01,08,18,10.90
2009,05,01,08,19,10.80
2009,05,01,08,20,10.90
2009,05,01,08,21,11.00
2009,05,01,08,22,11.00
2009,05,01,08,23,11.00
2009,05,01,08,24,11.10
2009,05,01,08,25,11.10
2009,05,01,08,26,11.10
2009,05,01,08,27,11.10
2009,05,01,08,28,11.10
2009,05,01,08,29,11.10
2009,05,01,08,30,11.20
2009,05,01,08,31,11.30
2009,05,01,08,32,11.30
2009,05,01,08,33,11.40
2009,05,01,08,34,11.40
2009,05,01,08,35,11.40
2009,05,01,08,36,11.50
2009,05,01,08,37,11.50
2009,05,01,08,38,11.40
2009,05,01,08,39,11.40
2009,05,01,08,40,11.40
2009,05,01,08,41,11.50
2009,05,01,08,42,11.60
2009,05,01,08,43,11.60
2009,05,01,08,44,11.70
2009,05,01,08,45,11.70
2009,05,01,08,46,11.80
2009,05,01,08,47,11.90
2009,05,01,08,48,12.00
2009,05,01,08,49,12.10
2009,05,01,08,50,12.20
2009,05,01,08,51,12.20
2009,05,01,08,52,12.20
2009,05,01,08,53,12.30
2009,05,01,08,54,12.40
2009,05,01,08,55,12.60
2009,05,01,08,56,12.60
2009,05,01,08,57,12.60
2009,05,01,08,58,12.60
2009,05,01,08,59,12.50
2009,05,01,09,00,12.30
2009,05,01,09,01,12.30
2009,05,01,09,02,12.30
2009,05,01,09,03,12.30
2009,05,01,09,04,12.20
2009,05,01,09,05,12.20
2009,05,01,09,06,12.20
2009,05,01,09,07,12.20
2009,05,01,09,08,12.20
2009,05,01,09,09,12.10
2009,05,01,09,10,12.10
2009,05,01,09,11,12.10
2009,05,01,09,12,12.10
2009,05,01,09,13,12.20
2009,05,01,09,14,12.30
2009,05,01,09,15,12.30
2009,05,01,09,16,12.30
2009,05,01,09,17,12.30
2009,05,01,09,18,12.20
2009,05,01,09,19,12.20
2009,05,01,09,20,12.20
2009,05,01,09,21,12.30
2009,05,01,09,22,12.50
2009,05,01,09,23,12.50
2009,05,01,09,24,12.40
2009,05,01,09,25,12.40
2009,05,01,09,26,12.50
2009,05,01,09,27,12.60
2009,05,01,09,28,12.60
2009,05,01,09,29,12.60
2009,05,01,09,30,12.60
2009,05,01,09,31,12.60
2009,05,01,09,32,12.60
2009,05,01,09,33,12.60
2009,05,01,09,34,12.60
2009,05,01,09,35,12.60
2009,05,01,09,36,12.60
2009,05,01,09,37,12.60
2009,05,01,09,38,12.60
2009,05,01,09,39,12.60
2009,05,01,09,40,12.60
2009,05,01,09,41,12.60
2009,05,01,09,42,12.60
2009,05,01,09,43,12.60
2009,05,01,09,44,12.60
2009,05,01,09,45,12.60
2009,05,01,09,46,12.60
2009,05,01,09,47,12.60
2009,05,01,09,48,12.70
2009,05,01,09,49,12.70
2009,05,01,09,50,12.70
2009,05,01,09,51,12.60
2009,05,01,09,52,12.60
2009,05,01,09,53,12.60
2009,05,01,09,54,12.70
2009,05,01,09,55,12.70
2009,05,01,09,56,12.80
2009,05,01,09,57,12.80
2009,05,01,09,58,12.90
2009,05,01,09,59,13.00
2009,05,01,10,00,13.10
2009,05,01,10,01,13.20
2009,05,01,10,02,13.20
2009,05,01,10,03,13.20
2009,05,01,10,04,13.30
2009,05,01,10,05,13.30
2009,05,01,10,06,13.20
2009,05,01,10,07,13.20
2009,05,01,10,08,13.10
2009,05,01,10,09,13.10
2009,05,01,10,10,13.00
2009,05,01,10,11,13.00
2009,05,01,10,12,13.00
2009,05,01,10,13,13.10
2009,05,01,10,14,13.20
2009,05,01,10,15,13.20
2009,05,01,10,16,13.20
2009,05,01,10,17,13.20
2009,05,01,10,18,13.10
2009,05,01,10,19,13.00
2009,05,01,10,20,13.10
2009,05,01,10,21,13.10
2009,05,01,10,22,13.10
2009,05,01,10,23,13.10
2009,05,01,10,24,13.10
2009,05,01,10,25,13.20
2009,05,01,10,26,13.10
2009,05,01,10,27,13.10
2009,05,01,10,28,13.10
2009,05,01,10,29,13.20
2009,05,01,10,30,13.30
2009,05,01,10,31,13.30
2009,05,01,10,32,13.30
2009,05,01,10,33,13.30
2009,05,01,10,34,13.30
2009,05,01,10,35,13.40
2009,05,01,10,36,13.50
2009,05,01,10,37,13.50
2009,05,01,10,38,13.50
2009,05,01,10,39,13.60
2009,05,01,10,40,13.60
2009,05,01,10,41,13.60
2009,05,01,10,42,13.60
2009,05,01,10,43,13.50
2009,05,01,10,44,13.60
2009,05,01,10,45,13.60
2009,05,01,10,46,13.60
2009,05,01,10,47,13.70
2009,05,01,10,48,13.70
2009,05,01,10,49,13.70
2009,05,01,10,50,13.80
2009,05,01,10,51,13.80
2009,05,01,10,52,13.80
2009,05,01,10,53,13.80
2009,05,01,10,54,13.90
2009,05,01,10,55,13.90
2009,05,01,10,56,14.00
2009,05,01,10,57,14.10
2009,05,01,10,58,14.20
2009,05,01,10,59,14.20
2009,05,01,11,00,14.30
2009,05,01,11,01,14.30
2009,05,01,11,02,14.40
2009,05,01,11,03,14.60
2009,05,01,11,04,14.70
2009,05,01,11,05,14.80
2009,05,01,11,06,14.80
2009,05,01,11,07,14.70
2009,05,01,11,08,14.70
2009,05,01,11,09,14.70
2009,05,01,11,10,14.70
2009,05,01,11,11,14.70
2009,05,01,11,12,14.70
2009,05,01,11,13,14.80
2009,05,01,11,14,14.90
2009,05,01,11,15,15.00
2009,05,01,11,16,14.90
2009,05,01,11,17,14.90
2009,05,01,11,18,15.00
2009,05,01,11,19,14.80
2009,05,01,11,20,14.70
2009,05,01,11,21,14.70
2009,05,01,11,22,14.70
2009,05,01,11,23,14.80
2009,05,01,11,24,14.90
2009,05,01,11,25,14.90
2009,05,01,11,26,15.00
2009,05,01,11,27,15.00
2009,05,01,11,28,15.00
2009,05,01,11,29,15.00
2009,05,01,11,30,15.00
2009,05,01,11,31,15.00
2009,05,01,11,32,15.00
2009,05,01,11,33,15.00
2009,05,01,11,34,15.00
2009,05,01,11,35,14.90
2009,05,01,11,36,14.90
2009,05,01,11,37,15.00
2009,05,01,11,38,15.00
2009,05,01,11,39,15.00
2009,05,01,11,40,15.20
2009,05,01,11,41,15.30
2009,05,01,11,42,15.30
2009,05,01,11,43,15.40
2009,05,01,11,44,15.40
2009,05,01,11,45,15.40
2009,05,01,11,46,15.40
2009,05,01,11,47,15.50
2009,05,01,11,48,15.60
2009,05,01,11,49,15.50
2009,05,01,11,50,15.40
2009,05,01,11,51,15.30
2009,05,01,11,52,15.20
2009,05,01,11,53,15.00
2009,05,01,11,54,15.00
2009,05,01,11,55,15.00
2009,05,01,11,56,15.00
2009,05,01,11,57,15.00
2009,05,01,11,58,15.00
2009,05,01,11,59,15.10
2009,05,01,12,00,15.20
2009,05,01,12,01,15.30
2009,05,01,12,02,15.40
2009,05,01,12,03,15.40
2009,05,01,12,04,15.40
2009,05,01,12,05,15.30
2009,05,01,12,06,15.30
2009,05,01,12,07,15.40
2009,05,01,12,08,15.50
2009,05,01,12,09,15.60
2009,05,01,12,10,15.60
2009,05,01,12,11,15.70
2009,05,01,12,12,15.90
2009,05,01,12,13,15.90
2009,05,01,12,14,15.90
2009,05,01,12,15,15.80
2009,05,01,12,16,15.70
2009,05,01,12,17,15.70
2009,05,01,12,18,15.70
2009,05,01,12,19,15.70
2009,05,01,12,20,15.80
2009,05,01,12,21,15.80
2009,05,01,12,22,15.80
2009,05,01,12,23,15.80
2009,05,01,12,24,15.80
2009,05,01,12,25,15.90
2009,05,01,12,26,15.90
2009,05,01,12,27,15.90
2009,05,01,12,28,15.90
2009,05,01,12,29,15.90
2009,05,01,12,30,15.90
2009,05,01,12,31,15.90
2009,05,01,12,32,15.90
2009,05,01,12,33,15.90
2009,05,01,12,34,15.90
2009,05,01,12,35,15.80
2009,05,01,12,36,15.80
2009,05,01,12,37,15.70
2009,05,01,12,38,15.70
2009,05,01,12,39,15.70
2009,05,01,12,40,15.80
2009,05,01,12,41,16.00
2009,05,01,12,42,16.20
2009,05,01,12,43,16.30
2009,05,01,12,44,16.30
2009,05,01,12,45,16.20
2009,05,01,12,46,16.20
2009,05,01,12,47,16.00
2009,05,01,12,48,16.10
2009,05,01,12,49,16.20
2009,05,01,12,50,16.10
2009,05,01,12,51,16.00
2009,05,01,12,52,16.00
2009,05,01,12,53,16.00
2009,05,01,12,54,16.20
2009,05,01,12,55,16.30
2009,05,01,12,56,16.30
2009,05,01,12,57,16.30
2009,05,01,12,58,16.30
2009,05,01,12,59,16.30
2009,05,01,13,00,16.20
2009,05,01,13,01,16.10
2009,05,01,13,02,16.10
2009,05,01,13,03,16.10
2009,05,01,13,04,16.10
2009,05,01,13,05,16.10
2009,05,01,13,06,16.20
2009,05,01,13,07,16.20
2009,05,01,13,08,16.30
2009,05,01,13,09,16.40
2009,05,01,13,10,16.60
2009,05,01,13,11,16.60
2009,05,01,13,12,16.50
2009,05,01,13,13,16.40
2009,05,01,13,14,16.30
2009,05,01,13,15,16.20
2009,05,01,13,16,16.20
2009,05,01,13,17,16.10
2009,05,01,13,18,16.20
2009,05,01,13,19,16.10
2009,05,01,13,20,16.10
2009,05,01,13,21,16.10
2009,05,01,13,22,16.10
2009,05,01,13,23,16.10
2009,05,01,13,24,16.10
2009,05,01,13,25,16.20
2009,05,01,13,26,16.20
2009,05,01,13,27,16.20
2009,05,01,13,28,16.30
2009,05,01,13,29,16.30
2009,05,01,13,30,16.30
2009,05,01,13,31,16.20
2009,05,01,13,32,16.30
2009,05,01,13,33,16.40
2009,05,01,13,34,16.60
2009,05,01,13,35,16.70
2009,05,01,13,36,16.70
2009,05,01,13,37,16.90
2009,05,01,13,38,16.90
2009,05,01,13,39,16.80
2009,05,01,13,40,16.70
2009,05,01,13,41,16.70
2009,05,01,13,42,16.70
2009,05,01,13,43,16.70
2009,05,01,13,44,16.70
2009,05,01,13,45,16.70
2009,05,01,13,46,16.60
2009,05,01,13,47,16.50
2009,05,01,13,48,16.40
2009,05,01,13,49,16.40
2009,05,01,13,50,16.40
2009,05,01,13,51,16.50
2009,05,01,13,52,16.60
2009,05,01,13,53,16.60
2009,05,01,13,54,16.70
2009,05,01,13,55,16.70
2009,05,01,13,56,16.80
2009,05,01,13,57,17.00
2009,05,01,13,58,17.10
2009,05,01,13,59,17.10
2009,05,01,14,00,17.10
2009,05,01,14,01,17.00
2009,05,01,14,02,16.90
2009,05,01,14,03,17.00
2009,05,01,14,04,17.10
2009,05,01,14,05,17.10
2009,05,01,14,06,17.00
2009,05,01,14,07,17.00
2009,05,01,14,08,16.90
2009,05,01,14,09,17.00
2009,05,01,14,10,17.10
2009,05,01,14,11,17.00
2009,05,01,14,12,17.00
2009,05,01,14,13,17.10
2009,05,01,14,14,17.20
2009,05,01,14,15,17.30
2009,05,01,14,16,17.30
2009,05,01,14,17,17.30
2009,05,01,14,18,17.40
2009,05,01,14,19,17.50
2009,05,01,14,20,17.60
2009,05,01,14,21,17.60
2009,05,01,14,22,17.50
2009,05,01,14,23,17.40
2009,05,01,14,24,17.30
2009,05,01,14,25,17.30
2009,05,01,14,26,17.30
2009,05,01,14,27,17.30
2009,05,01,14,28,17.30
2009,05,01,14,29,17.40
2009,05,01,14,30,17.40
2009,05,01,14,31,17.40
2009,05,01,14,32,17.40
2009,05,01,14,33,17.40
2009,05,01,14,34,17.40
2009,05,01,14,35,17.50
2009,05,01,14,36,17.60
2009,05,01,14,37,17.70
2009,05,01,14,38,17.80
2009,05,01,14,39,17.80
2009,05,01,14,40,17.80
2009,05,01,14,41,17.80
2009,05,01,14,42,17.90
2009,05,01,14,43,17.80
2009,05,01,14,44,17.80
2009,05,01,14,45,17.70
2009,05,01,14,46,17.60
2009,05,01,14,47,17.60
2009,05,01,14,48,17.60
2009,05,01,14,49,17.70
2009,05,01,14,50,17.80
2009,05,01,14,51,17.70
2009,05,01,14,52,17.60
2009,05,01,14,53,17.60
2009,05,01,14,54,17.60
2009,05,01,14,55,17.70
2009,05,01,14,56,17.60
2009,05,01,14,57,17.60
2009,05,01,14,58,17.70
2009,05,01,14,59,17.70
2009,05,01,15,00,17.70
2009,05,01,15,01,17.70
2009,05,01,15,02,17.80
2009,05,01,15,03,17.80
2009,05,01,15,04,17.90
2009,05,01,15,05,18.10
2009,05,01,15,06,18.20
2009,05,01,15,07,18.40
2009,05,01,15,08,18.50
2009,05,01,15,09,18.60
2009,05,01,15,10,18.70
2009,05,01,15,11,18.70
2009,05,01,15,12,18.70
2009,05,01,15,13,18.70
2009,05,01,15,14,18.60
2009,05,01,15,15,18.60
2009,05,01,15,16,18.70
2009,05,01,15,17,18.70
2009,05,01,15,18,18.70
2009,05,01,15,19,18.60
2009,05,01,15,20,18.60
2009,05,01,15,21,18.50
2009,05,01,15,22,18.60
2009,05,01,15,23,18.60
2009,05,01,15,24,18.70
2009,05,01,15,25,18.70
2009,05,01,15,26,18.60
2009,05,01,15,27,18.60
2009,05,01,15,28,18.60
2009,05,01,15,29,18.60
2009,05,01,15,30,18.70
2009,05,01,15,31,18.80
2009,05,01,15,32,18.90
2009,05,01,15,33,18.90
2009,05,01,15,34,18.80
2009,05,01,15,35,18.70
2009,05,01,15,36,18.80
2009,05,01,15,37,18.90
2009,05,01,15,38,19.00
2009,05,01,15,39,19.10
2009,05,01,15,40,19.20
2009,05,01,15,41,19.30
2009,05,01,15,42,19.40
2009,05,01,15,43,19.40
2009,05,01,15,44,19.40
2009,05,01,15,45,19.40
2009,05,01,15,46,19.40
2009,05,01,15,47,19.40
2009,05,01,15,48,19.50
2009,05,01,15,49,19.60
2009,05,01,15,50,19.70
2009,05,01,15,51,19.80
2009,05,01,15,52,19.80
2009,05,01,15,53,19.90
2009,05,01,15,54,20.00
2009,05,01,15,55,20.00
2009,05,01,15,56,19.90
2009,05,01,15,57,19.80
2009,05,01,15,58,19.80
2009,05,01,15,59,19.80
2009,05,01,16,00,19.80
2009,05,01,16,01,19.70
2009,05,01,16,02,19.50
2009,05,01,16,03,19.40
2009,05,01,16,04,19.30
2009,05,01,16,05,19.30
2009,05,01,16,06,19.30
2009,05,01,16,07,19.40
2009,05,01,16,08,19.40
2009,05,01,16,09,19.40
2009,05,01,16,10,19.40
2009,05,01,16,11,19.50
2009,05,01,16,12,19.60
2009,05,01,16,13,19.60
2009,05,01,16,14,19.70
2009,05,01,16,15,19.70
2009,05,01,16,16,19.70
2009,05,01,16,17,19.60
2009,05,01,16,18,19.60
2009,05,01,16,19,19.50
2009,05,01,16,20,19.40
2009,05,01,16,21,19.40
2009,05,01,16,22,19.50
2009,05,01,16,23,19.50
2009,05,01,16,24,19.50
2009,05,01,16,25,19.50
2009,05,01,16,26,19.50
2009,05,01,16,27,19.50
2009,05,01,16,28,19.60
2009,05,01,16,29,19.70
2009,05,01,16,30,19.60
2009,05,01,16,31,19.60
2009,05,01,16,32,19.60
2009,05,01,16,33,19.60
2009,05,01,16,34,19.60
2009,05,01,16,35,19.60
2009,05,01,16,36,19.60
2009,05,01,16,37,19.60
2009,05,01,16,38,19.70
2009,05,01,16,39,19.80
2009,05,01,16,40,19.80
2009,05,01,16,41,19.80
2009,05,01,16,42,19.80
2009,05,01,16,43,19.80
2009,05,01,16,44,19.80
2009,05,01,16,45,19.90
2009,05,01,16,46,19.80
2009,05,01,16,47,19.80
2009,05,01,16,48,19.70
2009,05,01,16,49,19.70
2009,05,01,16,50,19.70
2009,05,01,16,51,19.70
2009,05,01,16,52,19.80
2009,05,01,16,53,19.80
2009,05,01,16,54,19.80
2009,05,01,16,55,19.80
2009,05,01,16,56,19.80
2009,05,01,16,57,19.80
2009,05,01,16,58,19.70
2009,05,01,16,59,19.70
2009,05,01,17,00,19.70
2009,05,01,17,01,19.80
2009,05,01,17,02,19.80
2009,05,01,17,03,19.80
2009,05,01,17,04,19.80
2009,05,01,17,05,19.70
2009,05,01,17,06,19.60
2009,05,01,17,07,19.50
2009,05,01,17,08,19.40
2009,05,01,17,09,19.30
2009,05,01,17,10,19.10
2009,05,01,17,11,18.90
2009,05,01,17,12,18.80
2009,05,01,17,13,18.70
2009,05,01,17,14,18.70
2009,05,01,17,15,18.70
2009,05,01,17,16,18.70
2009,05,01,17,17,18.80
2009,05,01,17,18,18.80
2009,05,01,17,19,18.80
2009,05,01,17,20,18.70
2009,05,01,17,21,18.60
2009,05,01,17,22,18.50